User: anonymous   Login
Location: Newark
(45.2500°N, 7.5833°E)
Time: 04:10:27
(UTC+00:00)
Language:

First-Move - Orbit

View from above orbital plane
View from above orbital plane
View from above satellite
View from above satellite

Ground track
Ground track

The orbit data is extracted from the following two-line orbital elements,

1 39439U 13066Z   20058.71101900 +.00000344 +00000-0 +48325-4 0  9995
2 39439 097.5715 063.2951 0063741 281.1996 078.2057 14.82044833337477
Epoch (UTC): 27 February 2020 17:03:52
Eccentricity: 0.0063741
inclination: 97.5715°
perigee height: 578 km
apogee height: 667 km
right ascension of ascending node: 63.2951°
argument of perigee: 281.1996°
revolutions per day: 14.82044833
mean anomaly at epoch: 78.2057°
orbit number at epoch: 33747

The dashed part of the orbit path shows where the satellite is in the earth's shadow,  

DLR